This is the latest recevied weather packets stored in our database for station/object KU9TRY. If no packets are shown the sender has not sent any weather packets the latest 1 day(s).
| Time | Temp. | Humidity | Pressure | Rain* | Wind** | Luminosity | Snow |
|---|---|---|---|---|---|---|---|
| 1778096326 | 15° C | 92% | 1013.4 hPa | 0 mm | - | 142 W/m² | - |
| 1778095416 | 14.44° C | 95% | 1013.1 hPa | 0 mm | - | 212 W/m² | - |
| 1778095113 | 14.44° C | 95% | 1013.8 hPa | 0 mm | - | 144 W/m² | - |
| 1778093900 | 14.44° C | 94% | 1014 hPa | 0 mm | - | 61 W/m² | - |
| 1778093294 | 15° C | 94% | 1013.9 hPa | 1.27 mm | - | 59 W/m² | - |
| 1778090870 | 15° C | 94% | 1013 hPa | 0 mm | - | 64 W/m² | - |
| 1778090262 | 15° C | 94% | 1013.3 hPa | 0 mm | - | 53 W/m² | - |
| 1778089959 | 15° C | 93% | 1013.2 hPa | 0 mm | - | 69 W/m² | - |
| 1778089657 | 15° C | 93% | 1013 hPa | 0 mm | - | 118 W/m² | - |
| 1778088748 | 15.56° C | 92% | 1013.1 hPa | 0 mm | - | 136 W/m² | - |
| 1778088445 | 15.56° C | 91% | 1013.1 hPa | 0 mm | - | 131 W/m² | - |
| 1778087839 | 15.56° C | 92% | 1013.3 hPa | 0 mm | - | 169 W/m² | - |
| 1778086325 | 15.56° C | 94% | 1013.5 hPa | 0 mm | - | 97 W/m² | - |
| 1778085111 | 15.56° C | 93% | 1013.1 hPa | 0 mm | - | 144 W/m² | - |
| 1778084202 | 15.56° C | 92% | 1013 hPa | 0 mm | - | 122 W/m² | - |
| 1778083293 | 15.56° C | 92% | 1013.2 hPa | 0 mm | - | 222 W/m² | - |
| 1778082688 | 15.56° C | 94% | 1012.9 hPa | 0 mm | - | 69 W/m² | - |
| 1778080939 | 15° C | 94% | 1012.5 hPa | 0 mm | - | 87 W/m² | - |
| 1778080334 | 15.56° C | 95% | 1012.4 hPa | 0 mm | - | 84 W/m² | - |
| 1778080030 | 15.56° C | 95% | 1012.6 hPa | 0 mm | - | 71 W/m² | - |
| 1778079121 | 15.56° C | 94% | 1012.1 hPa | 0 mm | - | 67 W/m² | - |
| 1778078819 | 15.56° C | 94% | 1012 hPa | 0 mm | - | 49 W/m² | - |
| 1778077609 | 17.22° C | 95% | 1011.6 hPa | 0 mm | - | 36 W/m² | - |
| 1778077004 | 16.67° C | 96% | 1010.3 hPa | 0 mm | - | 169 W/m² | - |
| 1778076702 | 16.67° C | 96% | 1010.1 hPa | 0 mm | - | 180 W/m² | - |
* Rain latest hour (hover to see other rain measurements)
** Current wind speed in m/s (hover to see current wind gust speed)